Wind_Speed
23 23 23 23 23 23 23 23 24 23 23 23 24 24 24 24 24 24 24 24 23 23 23 23 23 23 23 24 24 25 25 26 26 26 26 26 27 27 27 26 25 25 24 24 24 25 25 24 23 22 21 20 21 22 23 23 23 24 24 24 24 23 23 23 23 23 24 24 22
23 23 23 23 23 23 24 24 24 24 24 24 24 24 24 24 25 25 25 25 24 24 24 24 24 24 24 25 25 25 25 25 26 26 27 27 27 27 26 25 24 24 23 24 24 25 25 24 23 22 21 20 21 21 22 23 23 23 24 25 24 24 23 22 22 22 23 23 23
24 24 24 24 24 24 24 24 25 25 26 26 25 25 25 25 25 25 26 26 26 25 25 25 25 25 25 25 25 25 25 25 26 26 27 27 27 26 25 24 24 23 23 24 24 24 25 24 24 22 21 21 21 21 22 22 22 23 24 25 24 24 23 22 21 22 22 22 23
24 24 24 24 24 25 25 25 26 27 27 27 27 26 26 26 26 26 26 27 26 26 25 25 25 25 25 25 25 25 25 25 26 26 27 26 25 25 24 24 24 24 24 24 24 24 24 24 23 23 22 22 22 22 22 22 22 22 23 24 24 23 23 23 22 22 22 23 24
25 25 25 25 25 26 26 26 27 27 28 27 27 26 26 26 26 27 27 26 26 26 26 25 25 25 24 24 24 25 25 26 25 25 25 25 24 24 24 24 23 23 24 24 24 24 24 24 23 22 22 22 22 22 21 22 22 23 23 24 23 22 22 22 22 22 23 23 23
26 26 26 26 26 26 26 26 27 28 28 27 27 27 27 27 27 27 27 27 27 27 26 25 25 24 24 24 24 25 25 26 25 25 25 24 25 25 24 24 24 24 24 24 24 24 23 23 23 22 22 21 22 22 22 22 22 22 23 23 23 23 22 22 22 22 22 23 23
26 26 27 27 27 27 27 27 27 28 28 27 28 28 29 29 29 29 29 29 29 28 27 26 25 25 25 25 25 26 26 26 26 25 25 25 25 25 25 25 25 25 24 24 23 23 23 23 22 22 21 21 21 21 21 21 21 22 23 24 24 23 23 23 23 23 23 23 24
27 27 27 28 28 28 28 28 28 28 27 27 28 29 30 30 30 31 30 30 30 29 28 27 26 26 26 25 26 26 26 26 26 25 24 24 25 25 25 25 25 25 24 24 23 23 23 23 22 21 21 21 21 21 21 21 22 23 24 25 25 24 24 24 24 24 24 25 25
27 28 28 28 28 28 28 28 28 28 28 28 29 30 31 31 31 31 31 30 30 29 28 28 27 26 26 26 26 26 26 26 25 25 24 24 24 24 25 24 24 24 24 24 23 23 23 23 22 22 22 21 21 22 23 23 24 24 25 25 25 25 24 24 25 26 26 26 26
28 29 29 29 28 28 28 28 28 28 29 30 31 31 31 31 31 31 30 30 30 29 28 28 27 27 26 26 26 26 25 25 25 25 25 24 24 24 25 24 24 24 24 24 23 23 23 23 24 24 24 23 23 23 24 24 24 25 25 24 24 25 26 26 26 26 26 26 26
29 29 29 29 28 28 28 28 29 29 29 30 30 31 31 31 31 30 30 30 29 29 29 29 28 27 26 26 26 25 25 25 25 24 24 24 24 24 24 24 24 25 24 24 24 23 23 23 23 23 24 23 23 23 24 24 24 25 25 25 26 26 27 27 26 25 25 25 26
29 29 29 28 28 28 28 28 29 29 29 30 30 30 30 30 30 30 30 30 30 30 30 29 28 27 27 26 26 25 25 24 24 24 24 24 24 23 24 24 24 24 25 25 24 23 22 22 22 23 24 24 23 23 23 24 24 25 26 26 26 26 26 26 26 25 24 25 25
28 29 29 29 28 28 28 28 28 28 28 29 29 29 29 29 30 29 29 29 29 29 29 29 27 27 26 26 25 25 24 24 23 23 23 24 24 23 23 24 24 24 24 24 24 23 22 22 23 24 25 25 25 24 23 23 24 25 26 26 26 26 26 26 26 25 25 25 26
28 28 29 29 29 28 28 28 28 27 27 28 29 29 29 29 29 28 28 28 29 29 29 28 27 26 26 25 25 24 23 23 23 23 24 24 24 24 24 24 24 24 24 24 23 23 23 24 24 24 25 25 25 25 24 24 24 25 25 26 26 26 26 27 27 26 26 26 26
28 28 29 29 29 28 28 27 27 27 27 27 28 28 28 28 28 28 27 28 28 28 28 28 27 27 26 25 25 24 23 23 23 23 24 25 25 25 25 24 24 24 24 23 23 23 23 24 24 24 24 24 25 25 25 25 25 25 26 26 26 27 27 27 27 27 26 26 26
28 29 29 29 28 28 28 27 26 26 26 27 28 28 29 28 28 28 28 28 28 28 28 27 27 27 26 25 24 24 23 23 23 23 24 25 25 25 25 25 24 24 24 24 23 23 24 24 24 24 24 25 25 26 26 26 26 26 26 26 27 27 27 27 26 27 27 26 26
29 29 29 28 28 28 28 27 27 27 27 28 29 29 29 29 28 28 28 28 28 28 28 28 28 27 26 26 25 24 24 24 24 24 24 25 25 25 25 25 24 24 24 24 24 24 25 25 25 25 25 26 26 26 27 27 26 26 27 27 27 27 27 26 26 26 27 26 26
29 29 29 28 28 28 28 28 28 28 28 29 30 30 29 29 29 29 29 29 29 29 30 30 30 29 28 28 27 26 26 25 25 25 25 25 25 25 25 25 25 24 24 24 25 25 26 27 27 27 26 26 26 26 26 26 26 26 27 27 27 27 27 26 26 26 26 26 26
29 29 29 28 28 28 29 29 29 29 30 30 30 30 30 30 30 30 30 30 30 30 30 31 31 31 30 29 29 28 27 26 26 26 26 26 26 26 26 26 26 26 26 26 26 26 27 27 27 27 27 27 26 26 26 26 26 26 27 27 27 27 27 26 26 26 26 26 27
29 29 29 29 29 29 29 29 30 30 30 31 31 31 31 31 30 30 30 31 31 31 31 31 31 31 31 30 30 29 28 28 27 27 26 26 26 26 26 26 26 26 26 26 26 26 27 27 27 27 27 27 27 27 27 27 26 27 27 27 26 27 26 26 26 26 26 27 27
29 29 29 29 30 30 30 30 30 31 31 31 31 31 31 31 30 30 30 31 31 31 31 31 31 31 31 31 30 30 29 28 27 27 26 26 26 26 27 27 27 27 27 27 26 26 26 26 27 27 27 27 27 27 27 26 26 26 27 27 26 26 26 26 26 26 26 27 27
29 29 29 30 30 30 30 30 31 31 31 31 31 31 31 30 30 30 30 31 31 31 31 31 31 31 31 31 30 29 29 28 27 27 27 26 26 27 27 27 27 27 28 27 27 27 27 27 27 27 27 27 27 27 27 27 27 27 27 27 27 27 26 26 26 26 27 28 28
29 30 30 30 30 30 30 31 31 31 31 31 31 31 30 30 30 30 30 30 30 30 30 31 31 31 30 30 30 29 29 28 28 27 27 27 27 28 28 28 27 28 28 28 28 27 27 27 27 27 27 27 27 27 27 27 27 27 27 27 27 27 26 26 26 27 27 28 28
30 30 30 30 30 30 30 31 31 30 30 30 30 30 30 30 30 30 30 30 30 30 30 30 30 30 30 30 29 29 28 28 28 28 28 28 28 28 28 28 28 28 28 28 27 27 27 26 26 26 26 26 26 27 27 27 27 26 26 26 26 26 26 26 27 27 26 26 26
31 31 31 30 30 31 31 30 30 30 30 30 30 30 30 30 30 30 29 29 30 30 30 30 30 30 30 30 29 29 28 28 27 27 27 27 27 27 27 27 27 27 27 27 27 26 26 26 26 26 26 26 27 27 27 27 27 26 26 25 24 24 25 26 27 27 27 26 26
31 31 31 31 31 31 31 30 30 30 30 31 31 31 31 30 30 29 29 29 29 30 30 30 30 29 29 28 28 28 28 27 26 26 26 26 26 26 26 26 26 26 26 26 26 26 26 27 27 27 28 28 28 28 27 27 27 26 25 24 24 24 25 26 27 27 27 26 25
31 31 31 31 31 31 31 30 30 30 31 31 31 31 31 30 29 28 28 28 28 29 29 29 29 28 27 27 27 27 27 26 25 25 25 25 26 26 26 26 25 25 25 25 26 26 27 28 29 29 30 30 30 29 29 28 28 27 26 25 25 25 26 27 27 27 26 25 24
31 31 31 31 31 31 31 31 30 30 30 31 31 31 31 30 29 29 28 28 28 28 28 28 27 26 25 25 26 26 26 25 25 24 24 25 26 26 26 26 25 25 26 26 27 27 28 29 30 31 31 32 32 31 30 29 28 27 26 26 26 26 27 27 28 27 26 24 23
31 31 31 31 31 31 31 30 30 30 30 31 31 31 31 31 30 29 28 28 28 27 27 27 26 25 25 25 25 26 26 25 25 25 25 26 26 27 27 27 26 26 27 27 28 29 30 31 32 33 33 33 33 32 30 29 27 26 25 25 25 26 27 27 26 25 24 23 22
31 31 31 31 31 31 31 30 30 30 30 31 31 31 31 31 31 30 29 28 28 28 27 27 27 26 27 27 27 27 26 26 26 26 26 27 28 28 28 28 27 27 27 27 28 29 31 32 33 34 34 34 34 33 31 28 26 25 24 24 25 26 27 27 26 24 22 21 21
30 30 30 30 30 30 31 31 31 31 31 31 31 32 32 31 31 31 30 29 29 29 29 29 28 28 29 29 28 28 28 28 28 28 28 29 29 29 29 28 28 28 27 28 28 30 31 32 33 34 34 33 33 32 30 28 26 25 25 25 26 27 28 27 26 24 22 21 21
30 30 30 30 30 30 31 31 31 31 31 32 32 32 32 32 32 31 31 30 29 29 29 29 29 29 29 29 29 28 29 29 29 29 29 29 29 29 28 28 28 27 27 27 28 29 29 29 29 29 28 28 28 29 29 29 27 27 26 27 27 27 27 26 24 23 22 21 21
30 30 29 29 30 30 31 31 31 32 32 32 32 32 32 32 32 32 31 30 29 28 28 28 28 28 28 28 28 28 28 29 29 29 29 28 28 28 27 27 27 26 26 26 27 27 26 24 22 22 21 21 22 25 27 28 28 28 28 28 28 27 26 24 23 22 21 21 21
30 29 29 29 30 30 31 31 32 32 32 32 32 32 32 31 31 31 31 30 29 29 29 29 29 29 29 29 29 28 28 28 28 28 28 28 27 27 26 26 27 26 25 25 25 24 23 21 20 20 20 19 18 18 20 23 25 27 27 27 26 25 24 23 22 21 21 20 20
30 29 29 29 30 31 31 32 32 32 32 32 32 32 32 32 31 31 30 30 30 29 29 29 30 30 29 29 28 28 28 28 28 28 28 28 27 26 26 26 27 26 25 24 23 23 21 20 19 19 19 18 17 16 15 17 20 22 23 23 23 22 21 21 21 20 20 19 18
29 29 29 30 30 31 32 32 32 32 32 32 32 32 32 31 31 31 31 30 30 30 30 30 30 29 28 28 28 27 27 27 27 28 28 27 26 26 26 26 27 26 24 23 22 21 21 20 18 17 17 16 16 14 13 13 14 17 18 19 19 19 19 19 18 18 18 17 16
29 29 29 30 30 31 32 32 32 32 32 32 32 32 31 31 31 31 31 31 30 30 30 30 29 28 28 28 28 28 28 28 27 27 27 27 26 25 25 26 26 25 24 22 21 20 20 19 18 17 16 16 15 14 13 13 13 14 15 16 16 16 15 15 15 15 15 15 15
30 29 29 30 30 31 32 32 32 31 32 32 32 32 32 31 31 31 32 31 30 30 30 29 28 28 28 29 29 29 29 28 27 27 26 26 26 25 24 25 25 25 24 22 20 20 19 19 18 17 16 15 14 14 13 14 14 14 14 14 13 13 12 12 13 13 14 14 15
30 30 30 30 30 31 31 31 31 31 32 32 32 32 32 31 31 31 32 32 31 31 30 29 29 29 30 29 29 29 28 28 27 26 26 26 26 25 24 24 24 24 23 21 20 19 19 18 18 17 15 14 13 13 13 13 13 13 13 12 12 12 11 12 12 13 13 14 15
30 30 30 30 31 31 31 31 31 31 31 30 31 31 32 32 32 32 32 32 32 31 30 29 29 29 30 29 28 28 28 28 28 27 26 26 26 25 23 23 23 23 22 21 20 19 19 18 17 16 15 13 12 12 12 12 12 12 11 11 11 12 12 12 12 12 13 13 14
31 30 30 31 31 31 30 31 31 31 31 30 30 31 31 32 32 32 32 31 31 31 30 29 28 28 29 28 27 27 27 27 27 27 26 25 25 24 23 22 22 22 22 21 19 18 18 17 16 15 13 12 12 12 11 10 10 10 10 10 11 12 12 13 13 14 13 13 14
Wind_Direction
309 308 307 305 302 300 297 295 293 292 289 287 286 285 285 284 283 282 282 282 281 281 282 283 284 285 286 288 289 291 293 294 295 295 294 294 293 292 292 292 293 294 295 296 297 298 298 298 299 299 298 296 296 296 296 295 296 296 296 295 294 293 293 292 290 290 290 288 287
308 306 305 303 302 300 298 296 295 293 291 289 287 286 285 284 282 281 281 281 280 280 281 282 282 283 285 287 289 290 291 292 293 294 295 295 295 294 293 293 292 292 292 293 293 294 295 296 298 298 297 296 295 295 295 295 296 296 295 294 294 294 293 292 291 291 291 290 289
306 305 304 302 301 300 298 297 295 294 293 291 289 287 286 284 282 281 280 280 280 280 280 280 281 283 285 287 288 288 289 289 291 293 294 295 295 294 293 291 290 289 289 289 290 291 293 295 295 295 295 294 295 295 295 296 296 296 295 295 295 294 293 292 291 292 292 291 289
304 303 302 300 299 299 298 296 295 295 293 292 291 289 286 284 282 281 280 280 280 279 278 279 281 283 285 286 286 286 287 288 290 291 292 293 292 292 291 289 288 287 287 288 289 290 292 293 294 293 292 292 293 293 293 295 296 296 295 295 294 293 292 291 291 292 291 290 288
303 302 301 299 299 298 298 297 296 295 294 293 291 289 287 285 284 282 281 280 279 279 279 280 281 282 283 284 283 284 285 287 288 289 290 290 290 289 289 287 285 285 286 287 288 290 291 291 291 290 290 291 291 291 292 294 295 295 295 294 293 293 292 292 292 293 292 290 287
302 301 301 300 299 298 298 297 297 296 295 293 291 289 287 286 285 283 282 280 280 280 280 280 280 280 280 281 281 283 284 286 286 287 287 287 288 288 287 285 285 285 286 286 287 288 288 289 289 288 288 289 289 290 291 293 294 294 294 294 293 293 294 294 295 295 295 293 291
301 301 300 300 299 299 298 298 297 297 296 294 291 288 287 286 285 284 283 282 281 280 279 278 278 278 278 279 280 281 283 284 285 285 285 286 286 287 286 286 285 284 284 285 285 285 286 286 286 286 286 287 288 289 290 292 292 293 293 293 293 293 293 294 295 296 297 297 296
301 301 300 300 299 299 298 298 298 297 296 294 291 289 288 288 286 285 284 283 281 280 279 278 277 277 277 278 278 280 281 282 284 284 284 284 285 285 286 285 284 283 282 282 283 283 284 284 284 283 283 284 286 287 289 290 291 291 291 291 291 292 292 293 295 296 296 297 297
302 301 301 300 299 299 298 298 298 297 296 294 292 291 290 289 287 286 285 283 282 281 280 278 277 277 277 277 278 279 280 281 282 283 282 282 282 282 283 282 282 281 281 281 281 282 282 282 281 280 280 281 282 285 287 289 290 290 290 290 291 291 292 293 294 295 296 296 295
302 302 301 300 299 299 299 299 298 297 296 295 294 293 292 290 288 286 285 283 283 281 280 278 278 277 277 277 277 278 279 280 280 281 281 281 280 280 280 280 281 281 281 281 281 281 281 280 279 278 278 278 280 283 286 287 289 289 289 289 290 291 292 292 293 294 294 294 294
302 302 301 300 299 299 299 299 299 298 297 296 295 294 293 291 289 287 286 285 283 281 280 279 278 277 277 277 277 278 279 279 279 279 279 280 279 278 278 278 279 279 280 280 280 280 279 278 276 277 277 278 280 283 285 287 288 288 288 288 289 289 290 290 291 292 292 293 293
302 302 301 300 299 299 299 299 299 298 297 296 296 295 293 292 291 289 288 286 283 281 280 279 278 277 277 276 276 277 277 278 278 278 278 277 277 276 276 276 277 278 279 280 280 279 277 274 274 275 276 278 279 281 283 285 287 288 288 288 288 288 288 288 289 290 291 292 293
302 302 301 301 300 300 299 298 298 298 297 296 296 295 294 293 292 291 289 286 284 282 281 280 279 277 276 276 276 277 277 277 277 277 276 276 275 275 275 275 275 276 277 278 278 276 274 273 273 274 275 277 278 279 281 284 286 287 288 288 288 287 287 287 288 289 290 291 291
302 302 302 302 301 300 299 298 298 297 296 296 296 295 295 294 293 292 290 287 285 283 282 281 279 277 276 276 276 276 276 276 275 276 276 275 275 275 274 274 274 275 275 276 275 275 274 273 273 274 275 276 278 279 280 282 283 285 286 286 287 287 286 286 287 288 288 289 290
303 302 303 303 302 300 299 298 297 296 296 296 296 296 296 295 294 293 291 289 287 285 283 281 280 278 277 276 276 275 275 275 275 275 276 276 276 275 275 273 273 273 274 274 274 274 273 273 274 274 274 275 277 278 279 280 281 282 283 283 284 284 284 284 285 285 286 286 288
303 303 303 303 302 301 299 298 297 296 296 296 297 297 297 296 295 294 293 291 289 287 285 283 281 280 279 278 276 275 275 275 275 276 277 277 276 276 275 274 273 273 272 273 273 273 273 273 273 274 274 275 276 277 278 279 279 280 280 281 281 281 282 282 282 282 282 283 285
304 304 304 303 302 301 299 298 297 297 296 296 297 297 297 296 296 295 293 291 290 288 286 284 282 281 280 279 277 276 275 276 276 276 277 277 276 275 274 273 272 272 272 272 272 273 273 274 274 274 274 274 274 275 276 277 277 278 278 279 279 279 279 279 279 279 280 282 283
305 304 304 303 302 301 300 299 298 297 297 297 298 298 297 297 296 295 293 292 290 288 286 284 283 281 279 278 277 276 276 276 276 276 276 276 276 275 274 273 271 271 271 271 272 272 273 274 274 274 274 273 273 274 274 275 275 275 276 276 277 277 277 277 276 277 278 279 281
304 304 304 303 302 302 301 300 299 299 299 299 298 298 298 297 296 295 294 292 291 289 287 285 283 281 279 278 277 276 276 276 276 276 276 276 275 275 273 272 271 271 271 271 271 271 272 273 273 273 273 273 273 273 273 273 274 274 274 274 275 276 275 275 274 274 275 276 278
304 304 304 303 303 302 301 301 300 300 300 300 299 299 298 298 297 296 294 293 292 290 288 285 283 281 279 278 277 276 276 276 276 276 276 276 275 274 273 273 272 272 272 271 270 270 271 271 272 272 273 272 272 272 272 273 273 273 273 274 274 274 274 273 272 272 273 275 276
303 303 303 303 303 302 301 301 301 301 300 300 300 299 299 298 298 296 295 294 293 292 289 286 283 281 279 278 277 277 276 276 276 276 276 276 276 275 274 274 273 273 272 271 270 270 270 270 271 272 272 272 272 272 271 271 271 272 272 273 273 273 273 272 271 271 272 274 275
303 303 303 303 303 302 302 301 301 301 300 300 300 299 299 299 298 297 296 296 295 293 290 287 284 282 280 278 277 277 277 277 276 275 276 276 276 276 276 275 273 272 271 270 270 270 270 270 271 272 272 272 272 271 270 270 269 270 270 271 271 272 272 271 270 270 271 273 274
303 303 303 303 302 302 302 302 301 301 301 300 300 300 300 299 299 298 297 297 295 293 291 288 285 283 280 279 277 277 276 276 276 276 276 276 277 277 276 275 273 271 270 270 269 269 270 271 272 272 271 270 270 270 269 268 268 267 268 269 270 271 271 270 270 270 270 271 273
303 303 303 303 302 302 302 302 302 301 301 301 301 301 300 300 299 298 298 297 295 294 292 290 287 284 281 280 278 276 276 276 276 276 277 277 277 277 276 275 273 271 269 269 269 269 270 270 271 271 271 270 270 269 268 267 265 265 265 266 268 269 270 270 270 269 269 270 272
303 303 303 303 302 302 302 302 302 301 301 302 302 301 301 300 299 298 297 296 295 294 293 291 288 285 283 280 278 276 275 275 275 276 277 278 278 278 276 274 272 270 269 269 270 270 270 270 270 270 271 271 270 268 267 265 264 263 262 263 265 267 269 270 270 270 270 270 270
304 304 303 303 303 303 302 302 302 302 302 303 303 302 301 300 298 297 295 295 294 294 293 292 289 286 283 280 278 276 275 274 275 276 277 278 279 278 277 275 272 270 270 270 271 272 272 272 272 272 272 272 271 269 267 265 265 263 262 261 262 264 266 268 269 269 269 269 270
304 304 304 304 304 303 302 302 302 303 303 304 304 303 302 300 298 296 295 294 294 294 294 293 290 287 284 280 278 276 275 274 274 275 277 278 279 279 277 275 273 271 271 272 273 274 274 274 274 274 273 272 271 269 268 266 266 265 262 260 261 262 263 265 267 268 268 269 270
304 304 304 304 304 303 303 303 303 303 304 305 305 304 303 301 299 297 295 294 294 295 295 293 291 288 285 281 278 276 275 275 275 276 277 279 279 278 277 276 274 274 274 275 275 276 277 277 276 276 274 272 271 269 267 266 264 263 260 259 259 260 261 263 264 265 265 267 269
304 304 304 304 304 303 303 303 304 304 305 305 305 305 304 302 300 298 296 295 295 294 294 293 292 290 286 282 280 278 277 276 276 277 279 279 279 278 277 276 276 276 276 277 278 279 279 279 279 277 276 273 271 269 267 264 262 259 257 256 257 258 259 260 261 261 262 264 266
304 305 305 304 304 304 304 304 304 305 305 305 305 304 303 302 300 299 297 295 294 294 293 293 292 289 286 283 281 280 279 278 278 278 279 279 279 278 277 276 276 276 278 279 281 282 283 282 281 279 277 274 271 268 266 263 260 258 255 255 256 258 259 260 258 257 258 261 262
304 304 304 304 304 304 304 305 305 305 306 305 304 304 303 301 300 299 297 295 294 293 293 292 291 288 285 283 281 279 278 278 279 279 279 278 278 278 277 277 277 277 279 282 284 285 286 286 285 283 279 275 270 266 263 261 259 256 255 255 257 259 259 258 255 254 255 257 257
304 304 304 304 304 305 305 306 306 306 306 305 304 303 302 300 299 298 297 295 294 293 292 292 290 288 286 284 282 280 279 279 279 279 279 278 277 276 276 277 277 279 281 284 286 287 289 292 294 293 288 279 271 264 259 257 256 255 255 256 257 257 256 253 250 250 251 252 251
304 304 304 305 305 306 306 306 307 306 306 305 303 302 301 300 300 298 297 296 294 293 292 291 290 288 286 284 282 280 280 279 279 279 279 278 277 276 276 277 278 280 283 285 288 290 295 303 312 315 309 295 277 264 257 254 253 253 254 255 255 253 250 247 246 247 249 248 245
304 304 305 305 306 306 307 307 307 306 305 304 303 302 301 301 300 299 298 296 295 294 292 291 290 288 286 284 282 280 280 280 280 280 279 278 277 277 277 277 279 281 284 287 290 293 300 309 317 322 320 312 297 277 260 252 249 249 249 249 248 246 244 243 245 247 247 244 240
304 304 305 306 306 307 307 307 307 306 305 304 303 302 302 301 300 299 298 297 295 294 293 291 290 289 287 285 282 280 280 280 280 279 278 278 277 277 277 278 279 282 285 288 291 295 300 305 309 312 313 311 306 292 272 253 245 242 241 240 239 239 241 243 246 246 243 238 233
303 304 305 306 306 307 307 307 307 306 305 304 303 302 302 301 301 300 299 298 296 294 293 291 290 289 287 285 283 281 279 279 279 279 278 277 276 276 276 278 280 283 286 289 292 296 299 301 302 304 305 304 302 295 281 260 245 237 235 234 235 238 241 243 242 239 234 227 222
303 304 305 306 306 306 306 306 306 305 305 304 303 302 302 302 302 301 301 299 297 294 292 291 290 288 287 286 284 282 280 279 279 278 278 277 275 275 275 278 281 284 286 289 292 295 297 299 299 299 298 297 294 288 279 264 250 241 236 235 235 236 236 233 228 222 216 210 207
302 303 304 305 305 306 306 306 305 305 304 303 303 302 302 302 302 302 301 299 296 293 291 290 289 288 288 288 286 284 282 280 278 277 276 276 275 275 276 278 281 284 286 288 290 293 295 297 297 297 295 292 288 281 271 259 249 241 234 229 224 220 214 209 204 199 195 192 191
302 303 304 304 305 305 305 305 304 304 303 303 303 303 303 303 302 301 300 298 295 292 290 288 287 288 289 289 287 284 282 280 278 276 276 275 275 276 277 278 281 284 286 287 289 291 293 295 295 294 292 287 281 273 264 254 244 234 223 212 201 192 186 183 180 178 177 177 178
302 303 304 304 304 304 304 303 303 303 303 302 302 302 302 302 301 300 299 297 294 291 289 287 286 288 289 289 286 283 281 279 278 276 275 275 276 276 277 277 279 282 285 287 288 289 291 293 293 292 287 280 271 265 260 254 242 228 212 195 180 168 160 157 157 157 159 162 164
302 303 303 303 303 303 303 302 302 302 302 302 302 301 301 301 300 300 299 297 295 293 291 289 287 288 288 288 285 282 279 278 277 276 276 276 277 277 276 276 278 282 285 286 287 288 290 291 291 288 282 272 263 258 257 254 240 222 200 180 164 153 145 139 138 138 140 143 146
Height
787 786 784 784 782 781 779 778 777 775 774 773 771 770 769 767 766 764 763 762 760 759 758 757 756 755 754 753 753 752 751 750 749 749 748 746 745 744 743 742 741 740 739 739 738 737 736 735 734 734 732 730 729 727 726 724 723 722 720 719 717 716 715 714 713 712 711 709 709
785 784 783 782 781 780 778 777 775 774 773 771 770 769 767 766 764 763 761 760 759 758 756 755 754 753 753 752 751 750 749 749 748 747 746 744 744 743 742 741 740 739 738 737 736 735 734 734 733 732 730 729 728 726 724 723 722 721 719 717 716 714 713 712 710 710 709 708 707
784 783 782 781 779 778 777 775 774 773 771 770 769 768 766 765 763 761 760 759 757 756 755 754 753 752 751 750 749 749 748 747 746 745 744 743 742 741 740 739 738 738 737 736 735 734 733 732 732 730 729 728 726 724 723 722 721 719 718 716 714 713 712 710 709 708 708 707 705
782 781 780 779 778 777 776 774 773 771 770 769 767 766 764 763 762 760 759 757 756 755 754 752 751 750 749 749 748 747 746 745 745 744 743 741 740 739 739 738 737 736 735 734 734 733 732 731 730 729 728 726 725 723 722 720 719 718 717 715 714 712 710 709 707 707 706 705 704
781 780 779 778 776 775 774 773 771 769 768 767 766 764 763 761 760 758 757 755 754 753 752 751 750 749 748 747 746 745 744 744 743 742 741 740 739 738 737 736 735 734 734 733 732 731 730 729 729 727 726 724 723 722 720 719 719 717 716 714 713 711 709 708 706 705 704 703 702
779 778 777 776 774 773 772 771 769 768 767 765 764 762 761 759 758 757 755 754 753 751 750 749 749 747 746 745 744 744 743 742 741 740 739 739 737 736 735 734 734 733 732 731 730 729 729 728 727 726 724 723 721 720 719 719 717 716 714 713 711 710 709 707 705 704 703 702 700
778 776 775 774 773 771 770 769 768 766 765 764 762 760 759 758 757 755 754 753 751 750 749 748 747 746 744 744 743 742 741 740 739 739 738 737 735 734 734 733 732 731 730 730 729 728 727 727 726 724 723 722 720 719 717 717 716 715 713 712 710 709 708 706 704 703 702 701 699
776 775 774 772 771 770 769 767 766 765 763 762 760 759 757 756 755 754 752 751 749 748 747 746 745 744 743 742 741 740 739 738 738 737 736 735 734 733 732 731 730 729 729 728 727 727 726 725 724 723 721 720 718 717 716 715 714 714 712 710 709 708 706 705 704 702 701 699 699
774 773 772 770 769 768 767 765 764 763 762 760 759 757 756 754 753 752 750 749 748 746 745 744 743 742 741 740 739 738 737 736 736 735 734 734 733 731 730 729 729 728 727 726 726 725 724 724 722 721 719 718 717 715 714 714 713 712 710 709 708 706 705 704 703 701 700 699 697
772 771 770 769 767 766 765 764 762 761 760 758 756 755 754 753 751 750 749 747 746 745 744 742 741 740 739 738 737 736 735 734 734 733 732 732 731 730 729 728 727 726 725 724 724 723 723 721 720 719 718 716 715 714 713 712 711 710 709 708 706 705 704 702 701 700 699 697 696
771 769 768 767 765 764 763 762 760 759 758 756 754 753 752 751 749 748 747 745 744 743 741 740 739 739 737 736 735 734 734 733 732 731 730 730 729 728 727 726 725 724 724 723 722 722 721 719 718 717 716 715 714 713 711 710 710 709 707 706 705 704 702 701 700 699 698 696 695
769 768 766 765 764 763 761 760 759 757 756 754 753 751 750 749 747 746 745 744 742 741 739 739 738 737 735 734 733 732 731 731 730 729 729 728 727 726 726 725 724 723 722 721 721 720 719 718 716 715 714 713 712 711 710 709 708 707 705 704 703 702 701 699 699 698 696 695 694
768 766 765 764 762 761 760 758 757 756 754 753 751 750 748 747 746 744 743 742 740 739 738 736 736 735 734 732 731 730 730 729 728 728 727 726 725 725 724 723 722 721 720 719 719 718 717 716 714 714 713 711 711 710 709 708 707 705 704 703 702 700 699 698 697 696 695 694 692
766 765 763 762 761 759 758 757 755 754 753 751 749 748 747 745 744 743 742 740 739 737 736 735 734 733 732 731 730 729 728 727 727 726 725 724 724 723 722 721 720 719 719 718 717 716 715 714 713 712 711 710 709 708 707 706 705 704 703 701 700 699 698 696 695 695 694 692 691
765 763 762 760 759 758 757 755 754 752 751 749 748 746 745 744 742 741 740 739 737 736 734 733 732 731 730 729 728 727 726 726 725 724 723 722 722 721 720 719 719 718 717 716 715 714 713 712 711 710 709 708 707 706 705 704 703 702 701 700 699 697 696 695 694 693 692 691 689
763 762 760 759 758 756 755 754 752 751 749 748 746 745 744 742 741 739 738 737 735 734 733 732 730 729 728 727 727 726 725 724 723 722 721 720 719 719 718 718 717 716 715 714 713 712 711 710 709 708 707 706 705 704 703 702 701 700 699 698 697 696 694 694 693 692 690 689 688
761 760 759 758 756 755 754 752 751 749 748 746 744 743 742 741 739 738 737 735 734 733 731 730 729 728 727 726 725 724 723 722 721 720 719 719 718 717 716 715 715 714 713 712 711 710 709 708 707 706 705 704 703 702 701 700 699 698 697 696 695 694 693 692 691 690 689 688 686
760 759 757 756 755 753 752 750 749 748 746 744 743 741 740 739 738 736 735 734 733 731 729 728 727 726 725 724 723 722 721 720 719 718 717 716 716 715 714 714 713 712 711 710 709 708 707 706 705 704 703 702 701 700 699 698 697 696 694 694 693 692 691 690 689 688 687 686 684
759 757 756 754 753 752 750 749 747 746 744 743 741 739 738 737 736 734 733 731 730 729 728 726 725 724 723 722 721 720 719 718 717 716 715 714 714 713 712 711 710 710 709 708 707 706 705 704 703 702 701 700 699 698 697 696 694 693 692 691 690 689 689 688 687 686 685 684 683
758 756 754 753 752 750 749 747 746 744 742 741 739 738 736 735 734 732 731 729 728 727 726 724 723 722 720 719 719 718 717 716 715 714 713 712 712 711 710 709 708 707 707 706 705 704 703 701 700 699 699 698 697 695 694 694 692 691 690 689 688 687 686 686 685 684 684 683 681
756 755 753 752 750 749 747 745 744 742 741 739 737 736 734 733 732 730 729 728 726 725 724 722 721 719 718 717 716 715 714 714 713 712 711 710 709 709 708 707 706 705 704 703 702 701 700 699 699 698 696 695 694 693 692 691 690 689 688 687 686 685 684 684 683 682 681 680 679
754 753 752 750 749 747 745 744 742 740 739 737 735 734 733 731 730 729 727 726 724 723 722 720 719 718 716 715 714 713 712 712 711 710 709 708 707 706 705 705 704 703 702 701 700 699 698 697 696 695 694 693 692 691 690 689 688 686 685 684 684 683 682 681 681 680 679 678 677
753 752 750 749 747 745 744 742 740 739 737 735 734 732 731 729 728 726 725 724 723 721 720 718 717 716 714 713 712 711 710 709 708 707 707 706 705 704 703 703 702 700 699 698 697 696 696 695 694 693 692 691 689 688 687 686 685 684 683 682 681 680 680 679 679 678 677 676 675
751 750 749 747 745 744 742 740 739 737 735 734 732 730 729 728 726 724 723 722 720 719 718 717 715 714 713 711 710 709 709 707 706 705 704 704 703 702 701 700 699 698 697 696 695 694 693 693 691 690 689 688 687 686 684 684 683 682 681 680 679 678 678 677 676 675 674 674 673
750 748 747 745 744 742 740 739 737 735 734 732 730 729 727 726 724 723 721 720 718 717 716 714 713 712 711 709 708 707 706 705 704 703 702 701 700 699 699 698 696 695 694 693 692 692 691 690 689 688 687 685 684 683 682 681 680 679 678 678 677 676 675 674 674 673 673 672 671
748 747 745 744 742 740 739 737 736 734 732 730 729 727 726 724 723 721 719 718 716 715 714 713 711 710 709 707 706 705 704 703 703 702 700 699 698 697 696 695 694 693 692 691 690 689 689 688 687 686 685 684 682 681 679 678 678 677 676 675 675 674 673 672 671 671 670 669 669
747 745 744 742 740 739 737 735 734 732 731 729 728 726 724 722 721 719 718 716 714 713 712 711 709 708 707 705 704 703 702 701 701 700 699 698 696 695 694 693 692 690 689 689 688 687 686 685 684 684 683 681 680 678 677 676 675 674 674 673 673 672 671 670 669 669 668 668 667
745 744 742 740 739 737 735 734 732 731 729 728 726 724 723 721 719 718 716 714 713 712 710 709 707 706 705 704 702 701 700 699 699 698 697 696 694 693 692 691 689 688 687 686 686 685 684 683 682 681 679 679 677 675 674 673 672 672 671 670 670 669 669 668 667 667 666 665 665
744 742 741 739 737 735 734 732 731 729 728 726 724 723 721 719 718 716 714 713 712 710 709 707 706 704 703 702 701 699 699 698 697 696 695 694 692 691 689 689 687 686 685 684 684 682 681 680 679 677 676 675 674 673 671 670 669 669 668 668 667 667 666 666 665 665 664 664 664
743 741 739 738 736 734 732 731 729 728 726 725 723 721 719 718 716 714 713 711 710 709 707 706 704 703 702 700 699 698 697 696 695 694 693 692 690 689 687 686 685 684 683 682 681 680 678 677 675 674 672 671 670 669 669 668 667 666 666 665 665 664 664 664 663 663 662 662 662
741 740 738 736 734 733 731 729 728 726 725 723 722 720 718 716 714 713 711 710 708 707 705 704 703 701 699 698 697 696 695 694 693 692 691 689 688 686 685 684 683 681 680 679 678 677 675 673 672 670 668 667 667 666 665 665 664 664 663 663 663 662 662 662 661 661 661 660 660
740 738 736 735 733 731 729 728 727 725 724 722 720 718 717 715 713 712 710 709 707 705 703 702 700 699 697 696 695 694 693 692 691 689 689 687 686 684 683 682 680 679 678 677 676 674 673 671 669 667 664 663 663 662 662 662 662 661 661 661 660 660 660 659 659 659 659 659 659
738 737 735 733 731 730 728 727 725 724 722 720 719 717 715 713 711 710 708 707 705 704 702 700 699 697 695 694 693 692 690 689 688 687 686 685 684 682 681 679 678 677 676 675 674 672 671 669 667 664 662 660 659 659 659 659 659 659 659 658 658 658 658 657 657 657 657 657 657
737 735 733 732 730 728 727 725 724 722 720 719 717 715 713 712 710 708 706 705 704 702 700 698 697 695 694 692 691 690 688 687 686 685 684 683 682 680 679 678 676 675 674 673 672 671 669 668 665 663 661 660 658 657 656 656 656 656 656 656 656 656 656 656 656 656 656 656 656
735 733 732 730 729 727 725 724 722 721 719 717 715 713 712 710 709 707 705 703 702 700 698 696 694 693 692 690 689 688 686 685 684 683 682 681 680 679 677 676 674 673 673 672 670 669 668 666 664 663 661 659 658 657 655 655 654 654 654 654 654 654 654 654 654 654 654 654 654
734 732 730 729 727 725 724 722 721 719 717 715 714 712 710 708 707 705 704 702 700 698 696 694 693 691 690 688 687 686 684 683 682 681 680 679 678 677 675 674 673 672 671 670 669 668 666 665 664 662 661 659 658 657 656 655 654 654 653 653 653 653 653 653 653 653 654 654 654
732 730 729 727 725 724 723 721 719 718 716 714 712 710 709 707 705 703 702 700 698 696 694 692 690 689 688 686 685 684 682 681 680 679 678 677 676 675 674 672 671 670 669 669 667 666 665 664 663 662 660 659 658 657 656 655 654 653 653 652 652 652 652 652 652 652 652 652 653
730 729 727 726 724 722 721 719 718 716 714 712 710 709 707 705 704 702 700 699 697 694 692 690 688 687 685 684 683 681 680 679 679 678 676 675 674 673 672 671 669 668 667 667 666 665 664 663 662 661 660 659 658 657 656 655 654 653 652 652 651 651 652 652 652 651 651 652 652
728 727 726 724 723 721 719 718 716 714 713 711 709 707 705 704 702 700 699 697 695 693 690 688 686 684 683 682 681 679 678 677 676 676 674 674 672 672 671 669 668 666 666 665 664 664 663 661 660 659 659 658 657 656 655 654 654 653 652 651 651 651 651 651 651 651 651 651 651
726 725 724 723 721 719 718 716 714 713 711 709 707 705 704 702 700 699 697 695 693 691 688 686 684 683 681 680 679 677 676 674 674 673 673 672 671 670 669 668 667 665 664 664 663 662 661 660 659 659 658 657 656 656 655 654 653 653 652 651 651 650 650 650 650 650 650 651 651
725 724 722 721 719 718 716 714 712 711 709 708 706 704 702 700 699 697 695 693 691 689 687 684 682 681 679 679 677 676 674 673 672 671 670 670 669 668 668 667 665 664 663 662 661 661 660 659 658 658 657 656 655 655 654 654 653 652 651 651 650 650 650 650 650 650 650 651 651